Location: Newark
(52.2090°N, 4.1550°W)
Time: 01:06:37
(UTC+00:00)

Vanguard 3 - Visible Passes

Search period start: 20 September 2019 00:00
Search period end: 30 September 2019 00:00
Orbit: 508 x 3263 km, 33.4° (Epoch: 19 September)

Date Brightness Start Highest point End Pass type
(mag) Time Alt. Az. Time Alt. Az. Time Alt. Az.
23 Sep 11.2 05:21:23 10° SSE 05:27:24 14° SE 05:34:21 10° ESE visible
25 Sep 11.0 05:04:01 10° SSE 05:10:03 14° SE 05:17:16 10° ESE visible
27 Sep 10.8 04:46:59 10° SSE 04:52:49 15° SE 04:59:58 10° ESE visible
29 Sep 10.6 04:30:14 10° SSE 04:35:43 15° SE 04:42:34 10° ESE visible
